This is the latest recevied weather packets stored in our database for station/object OE3XOC-11. If no packets are shown the sender has not sent any weather packets the latest 10 day(s).
| Time | Temp. | Humidity | Pressure | Rain* | Wind** | Luminosity | Snow |
|---|---|---|---|---|---|---|---|
| 1776942105 | 15° C | 36% | 965 hPa | - | - | - | - |
| 1776941805 | 15° C | 37% | 965.2 hPa | - | - | - | - |
| 1776941505 | 15.56° C | 37% | 965.4 hPa | - | - | - | - |
| 1776941205 | 15° C | 37% | 965.5 hPa | - | - | - | - |
| 1776940905 | 14.44° C | 38% | 965.1 hPa | - | - | - | - |
| 1776940605 | 15° C | 38% | 965.5 hPa | - | - | - | - |
| 1776940305 | 14.44° C | 38% | 965.5 hPa | - | - | - | - |
| 1776940005 | 13.89° C | 38% | 965.4 hPa | - | - | - | - |
| 1776939705 | 13.89° C | 39% | 965.3 hPa | - | - | - | - |
| 1776939405 | 13.89° C | 39% | 965.7 hPa | - | - | - | - |
| 1776939105 | 13.89° C | 39% | 965.7 hPa | - | - | - | - |
| 1776938805 | 13.89° C | 39% | 965.6 hPa | - | - | - | - |
| 1776938505 | 13.33° C | 40% | 966 hPa | - | - | - | - |
| 1776938205 | 13.33° C | 40% | 966 hPa | - | - | - | - |
| 1776937905 | 13.33° C | 39% | 966.1 hPa | - | - | - | - |
| 1776937605 | 13.33° C | 39% | 966.2 hPa | - | - | - | - |
| 1776937305 | 13.33° C | 40% | 966.3 hPa | - | - | - | - |
| 1776937005 | 13.33° C | 40% | 966.2 hPa | - | - | - | - |
| 1776936705 | 13.89° C | 40% | 966.4 hPa | - | - | - | - |
| 1776936405 | 12.78° C | 41% | 966.4 hPa | - | - | - | - |
| 1776936105 | 13.33° C | 41% | 966.4 hPa | - | - | - | - |
| 1776935805 | 13.33° C | 41% | 966.5 hPa | - | - | - | - |
| 1776935505 | 13.33° C | 42% | 966.5 hPa | - | - | - | - |
| 1776935206 | 12.78° C | 44% | 966.6 hPa | - | - | - | - |
| 1776934905 | 12.78° C | 44% | 966.8 hPa | - | - | - | - |
* Rain since midnight (hover to see other rain measurements)
** Current wind speed in m/s (hover to see current wind gust speed)